Time,TemperatureF,DewpointF,PressureIn,WindDirection,WindDirectionDegrees,WindSpeedMPH,WindSpeedGustMPH,Humidity,HourlyPrecipIn,Conditions,Clouds,dailyrainin,SoftwareType,DateUTC
2013-08-07 00:00:00,70.9,51.5,29.91,North,-999,-999.0,-999.0,50,0.00,,,0.00,AD6XL-WX-0.1,2013-08-07 07:00:00,
2013-08-07 00:05:00,70.6,51.7,29.91,North,-999,-999.0,-999.0,51,0.00,,,0.00,AD6XL-WX-0.1,2013-08-07 07:05:00,
2013-08-07 00:10:00,70.3,51.8,29.91,North,-999,-999.0,-999.0,51,0.00,,,0.00,AD6XL-WX-0.1,2013-08-07 07:10:00,
2013-08-07 00:15:00,70.0,51.9,29.91,North,-999,-999.0,-999.0,52,0.00,,,0.00,AD6XL-WX-0.1,2013-08-07 07:15:00,
2013-08-07 00:20:00,69.8,51.9,29.91,North,-999,-999.0,-999.0,52,0.00,,,0.00,AD6XL-WX-0.1,2013-08-07 07:20:00,
2013-08-07 00:25:00,69.6,51.9,29.91,North,-999,-999.0,-999.0,53,0.00,,,0.00,AD6XL-WX-0.1,2013-08-07 07:25:00,
2013-08-07 00:30:00,69.3,51.9,29.91,North,-999,-999.0,-999.0,53,0.00,,,0.00,AD6XL-WX-0.1,2013-08-07 07:30:00,
2013-08-07 00:36:00,69.2,51.8,29.91,North,-999,-999.0,-999.0,53,0.00,,,0.00,AD6XL-WX-0.1,2013-08-07 07:36:00,
2013-08-07 00:41:00,69.0,51.8,29.91,North,-999,-999.0,-999.0,54,0.00,,,0.00,AD6XL-WX-0.1,2013-08-07 07:41:00,
2013-08-07 00:46:00,68.7,51.8,29.91,North,-999,-999.0,-999.0,54,0.00,,,0.00,AD6XL-WX-0.1,2013-08-07 07:46:00,
2013-08-07 00:51:00,68.4,51.9,29.91,North,-999,-999.0,-999.0,55,0.00,,,0.00,AD6XL-WX-0.1,2013-08-07 07:51:00,
2013-08-07 00:56:00,68.1,52.1,29.91,North,-999,-999.0,-999.0,56,0.00,,,0.00,AD6XL-WX-0.1,2013-08-07 07:56:00,
2013-08-07 01:01:00,67.8,52.0,29.92,North,-999,-999.0,-999.0,56,0.00,,,0.00,AD6XL-WX-0.1,2013-08-07 08:01:00,
2013-08-07 01:06:00,67.5,51.8,29.92,North,-999,-999.0,-999.0,57,0.00,,,0.00,AD6XL-WX-0.1,2013-08-07 08:06:00,
2013-08-07 01:11:00,67.3,51.7,29.92,North,-999,-999.0,-999.0,57,0.00,,,0.00,AD6XL-WX-0.1,2013-08-07 08:11:00,
2013-08-07 01:16:00,67.1,51.4,29.92,North,-999,-999.0,-999.0,57,0.00,,,0.00,AD6XL-WX-0.1,2013-08-07 08:16:00,
2013-08-07 01:21:00,66.8,51.2,29.92,North,-999,-999.0,-999.0,57,0.00,,,0.00,AD6XL-WX-0.1,2013-08-07 08:21:00,
2013-08-07 01:26:00,66.6,51.1,29.92,North,-999,-999.0,-999.0,57,0.00,,,0.00,AD6XL-WX-0.1,2013-08-07 08:26:00,
2013-08-07 01:32:00,66.3,51.4,29.92,North,-999,-999.0,-999.0,58,0.00,,,0.00,AD6XL-WX-0.1,2013-08-07 08:32:00,
2013-08-07 01:37:00,65.9,51.6,29.92,North,-999,-999.0,-999.0,59,0.00,,,0.00,AD6XL-WX-0.1,2013-08-07 08:37:00,
2013-08-07 01:42:00,65.5,51.7,29.92,North,-999,-999.0,-999.0,60,0.00,,,0.00,AD6XL-WX-0.1,2013-08-07 08:42:00,
2013-08-07 01:47:00,65.2,51.6,29.92,North,-999,-999.0,-999.0,61,0.00,,,0.00,AD6XL-WX-0.1,2013-08-07 08:47:00,
2013-08-07 01:52:00,65.0,51.5,29.91,North,-999,-999.0,-999.0,61,0.00,,,0.00,AD6XL-WX-0.1,2013-08-07 08:52:00,
2013-08-07 01:57:00,64.8,51.7,29.91,North,-999,-999.0,-999.0,62,0.00,,,0.00,AD6XL-WX-0.1,2013-08-07 08:57:00,
2013-08-07 02:02:00,64.8,51.7,29.91,North,-999,-999.0,-999.0,62,0.00,,,0.00,AD6XL-WX-0.1,2013-08-07 09:02:00,
2013-08-07 02:07:00,64.8,51.7,29.91,North,-999,-999.0,-999.0,62,0.00,,,0.00,AD6XL-WX-0.1,2013-08-07 09:07:00,
2013-08-07 02:12:00,64.8,51.4,29.91,North,-999,-999.0,-999.0,62,0.00,,,0.00,AD6XL-WX-0.1,2013-08-07 09:12:00,
2013-08-07 02:17:00,64.7,51.1,29.92,North,-999,-999.0,-999.0,61,0.00,,,0.00,AD6XL-WX-0.1,2013-08-07 09:17:00,
2013-08-07 02:22:00,64.6,50.9,29.92,North,-999,-999.0,-999.0,61,0.00,,,0.00,AD6XL-WX-0.1,2013-08-07 09:22:00,
2013-08-07 02:28:00,64.5,51.2,29.92,North,-999,-999.0,-999.0,61,0.00,,,0.00,AD6XL-WX-0.1,2013-08-07 09:28:00,
2013-08-07 02:33:00,64.2,51.2,29.92,North,-999,-999.0,-999.0,62,0.00,,,0.00,AD6XL-WX-0.1,2013-08-07 09:33:00,
2013-08-07 02:38:00,64.0,51.0,29.92,North,-999,-999.0,-999.0,62,0.00,,,0.00,AD6XL-WX-0.1,2013-08-07 09:38:00,
2013-08-07 02:43:00,63.8,51.1,29.92,North,-999,-999.0,-999.0,63,0.00,,,0.00,AD6XL-WX-0.1,2013-08-07 09:43:00,
2013-08-07 02:48:00,63.7,51.2,29.92,North,-999,-999.0,-999.0,63,0.00,,,0.00,AD6XL-WX-0.1,2013-08-07 09:48:00,
2013-08-07 02:53:00,63.5,51.1,29.93,North,-999,-999.0,-999.0,64,0.00,,,0.00,AD6XL-WX-0.1,2013-08-07 09:53:00,
2013-08-07 02:58:00,63.2,51.1,29.93,North,-999,-999.0,-999.0,64,0.00,,,0.00,AD6XL-WX-0.1,2013-08-07 09:58:00,
2013-08-07 03:03:00,62.9,51.1,29.93,North,-999,-999.0,-999.0,65,0.00,,,0.00,AD6XL-WX-0.1,2013-08-07 10:03:00,
2013-08-07 03:08:00,62.6,51.2,29.93,North,-999,-999.0,-999.0,66,0.00,,,0.00,AD6XL-WX-0.1,2013-08-07 10:08:00,
2013-08-07 03:13:00,62.3,51.3,29.92,North,-999,-999.0,-999.0,67,0.00,,,0.00,AD6XL-WX-0.1,2013-08-07 10:13:00,
2013-08-07 03:19:00,62.0,51.2,29.92,North,-999,-999.0,-999.0,67,0.00,,,0.00,AD6XL-WX-0.1,2013-08-07 10:19:00,
2013-08-07 03:24:00,61.8,51.2,29.92,North,-999,-999.0,-999.0,68,0.00,,,0.00,AD6XL-WX-0.1,2013-08-07 10:24:00,
2013-08-07 03:29:00,61.6,51.1,29.93,North,-999,-999.0,-999.0,68,0.00,,,0.00,AD6XL-WX-0.1,2013-08-07 10:29:00,
2013-08-07 03:34:00,61.5,51.1,29.93,North,-999,-999.0,-999.0,68,0.00,,,0.00,AD6XL-WX-0.1,2013-08-07 10:34:00,
2013-08-07 03:39:00,61.4,51.2,29.93,North,-999,-999.0,-999.0,69,0.00,,,0.00,AD6XL-WX-0.1,2013-08-07 10:39:00,
2013-08-07 03:44:00,61.2,51.1,29.93,North,-999,-999.0,-999.0,69,0.00,,,0.00,AD6XL-WX-0.1,2013-08-07 10:44:00,
2013-08-07 03:49:00,61.2,51.0,29.94,North,-999,-999.0,-999.0,69,0.00,,,0.00,AD6XL-WX-0.1,2013-08-07 10:49:00,
2013-08-07 03:54:00,61.1,51.0,29.95,North,-999,-999.0,-999.0,69,0.00,,,0.00,AD6XL-WX-0.1,2013-08-07 10:54:00,
2013-08-07 03:59:00,60.9,51.0,29.96,North,-999,-999.0,-999.0,69,0.00,,,0.00,AD6XL-WX-0.1,2013-08-07 10:59:00,
2013-08-07 04:04:00,60.6,51.1,29.96,North,-999,-999.0,-999.0,70,0.00,,,0.00,AD6XL-WX-0.1,2013-08-07 11:04:00,
2013-08-07 04:09:00,60.5,51.3,29.96,North,-999,-999.0,-999.0,71,0.00,,,0.00,AD6XL-WX-0.1,2013-08-07 11:09:00,
2013-08-07 04:15:00,60.3,51.2,29.96,North,-999,-999.0,-999.0,71,0.00,,,0.00,AD6XL-WX-0.1,2013-08-07 11:15:00,
2013-08-07 04:20:00,60.1,51.0,29.96,North,-999,-999.0,-999.0,71,0.00,,,0.00,AD6XL-WX-0.1,2013-08-07 11:20:00,
2013-08-07 04:25:00,60.1,50.9,29.96,North,-999,-999.0,-999.0,71,0.00,,,0.00,AD6XL-WX-0.1,2013-08-07 11:25:00,
2013-08-07 04:30:00,60.1,50.9,29.96,North,-999,-999.0,-999.0,71,0.00,,,0.00,AD6XL-WX-0.1,2013-08-07 11:30:00,
2013-08-07 04:35:00,60.2,51.0,29.96,North,-999,-999.0,-999.0,71,0.00,,,0.00,AD6XL-WX-0.1,2013-08-07 11:35:00,
2013-08-07 04:40:00,60.4,51.0,29.96,North,-999,-999.0,-999.0,71,0.00,,,0.00,AD6XL-WX-0.1,2013-08-07 11:40:00,
2013-08-07 04:45:00,60.5,51.1,29.96,North,-999,-999.0,-999.0,71,0.00,,,0.00,AD6XL-WX-0.1,2013-08-07 11:45:00,
2013-08-07 04:50:00,60.4,51.2,29.96,North,-999,-999.0,-999.0,71,0.00,,,0.00,AD6XL-WX-0.1,2013-08-07 11:50:00,
2013-08-07 04:55:00,60.3,51.1,29.96,North,-999,-999.0,-999.0,71,0.00,,,0.00,AD6XL-WX-0.1,2013-08-07 11:55:00,
2013-08-07 05:00:00,60.2,51.1,29.96,North,-999,-999.0,-999.0,71,0.00,,,0.00,AD6XL-WX-0.1,2013-08-07 12:00:00,
2013-08-07 05:06:00,59.9,51.1,29.96,North,-999,-999.0,-999.0,72,0.00,,,0.00,AD6XL-WX-0.1,2013-08-07 12:06:00,
2013-08-07 05:11:00,59.7,51.1,29.96,North,-999,-999.0,-999.0,72,0.00,,,0.00,AD6XL-WX-0.1,2013-08-07 12:11:00,
2013-08-07 05:16:00,59.6,51.2,29.97,North,-999,-999.0,-999.0,73,0.00,,,0.00,AD6XL-WX-0.1,2013-08-07 12:16:00,
2013-08-07 05:21:00,59.4,51.2,29.97,North,-999,-999.0,-999.0,74,0.00,,,0.00,AD6XL-WX-0.1,2013-08-07 12:21:00,
2013-08-07 05:26:00,59.2,51.2,29.97,North,-999,-999.0,-999.0,74,0.00,,,0.00,AD6XL-WX-0.1,2013-08-07 12:26:00,
2013-08-07 05:31:00,59.2,51.4,29.98,North,-999,-999.0,-999.0,75,0.00,,,0.00,AD6XL-WX-0.1,2013-08-07 12:31:00,
2013-08-07 05:36:00,59.2,51.4,29.98,North,-999,-999.0,-999.0,75,0.00,,,0.00,AD6XL-WX-0.1,2013-08-07 12:36:00,
2013-08-07 05:41:00,59.4,51.3,29.98,North,-999,-999.0,-999.0,74,0.00,,,0.00,AD6XL-WX-0.1,2013-08-07 12:41:00,
2013-08-07 05:46:00,59.5,51.1,29.98,North,-999,-999.0,-999.0,73,0.00,,,0.00,AD6XL-WX-0.1,2013-08-07 12:46:00,
2013-08-07 05:51:00,59.5,51.1,29.98,North,-999,-999.0,-999.0,73,0.00,,,0.00,AD6XL-WX-0.1,2013-08-07 12:51:00,
2013-08-07 05:57:00,59.3,51.1,29.98,North,-999,-999.0,-999.0,74,0.00,,,0.00,AD6XL-WX-0.1,2013-08-07 12:57:00,
2013-08-07 06:02:00,59.2,51.1,29.98,North,-999,-999.0,-999.0,74,0.00,,,0.00,AD6XL-WX-0.1,2013-08-07 13:02:00,
2013-08-07 06:07:00,59.2,51.7,29.98,North,-999,-999.0,-999.0,76,0.00,,,0.00,AD6XL-WX-0.1,2013-08-07 13:07:00,
2013-08-07 06:12:00,59.1,52.3,29.99,North,-999,-999.0,-999.0,78,0.00,,,0.00,AD6XL-WX-0.1,2013-08-07 13:12:00,
2013-08-07 06:17:00,59.0,52.4,29.99,North,-999,-999.0,-999.0,78,0.00,,,0.00,AD6XL-WX-0.1,2013-08-07 13:17:00,
2013-08-07 06:22:00,58.9,52.1,29.99,North,-999,-999.0,-999.0,78,0.00,,,0.00,AD6XL-WX-0.1,2013-08-07 13:22:00,
2013-08-07 06:27:00,58.8,51.9,29.99,North,-999,-999.0,-999.0,77,0.00,,,0.00,AD6XL-WX-0.1,2013-08-07 13:27:00,
2013-08-07 06:32:00,58.8,51.7,30.00,North,-999,-999.0,-999.0,77,0.00,,,0.00,AD6XL-WX-0.1,2013-08-07 13:32:00,
2013-08-07 06:37:00,58.9,51.6,30.00,North,-999,-999.0,-999.0,76,0.00,,,0.00,AD6XL-WX-0.1,2013-08-07 13:37:00,
2013-08-07 06:42:00,59.1,51.6,29.99,North,-999,-999.0,-999.0,76,0.00,,,0.00,AD6XL-WX-0.1,2013-08-07 13:42:00,
2013-08-07 06:47:00,59.2,51.3,29.99,North,-999,-999.0,-999.0,75,0.00,,,0.00,AD6XL-WX-0.1,2013-08-07 13:47:00,
2013-08-07 06:53:00,59.4,51.2,29.99,North,-999,-999.0,-999.0,74,0.00,,,0.00,AD6XL-WX-0.1,2013-08-07 13:53:00,
2013-08-07 06:58:00,59.5,51.1,29.99,North,-999,-999.0,-999.0,73,0.00,,,0.00,AD6XL-WX-0.1,2013-08-07 13:58:00,
2013-08-07 07:03:00,59.7,51.2,29.99,North,-999,-999.0,-999.0,73,0.00,,,0.00,AD6XL-WX-0.1,2013-08-07 14:03:00,
2013-08-07 07:08:00,59.8,51.3,29.99,North,-999,-999.0,-999.0,73,0.00,,,0.00,AD6XL-WX-0.1,2013-08-07 14:08:00,
2013-08-07 07:13:00,59.9,51.3,29.99,North,-999,-999.0,-999.0,73,0.00,,,0.00,AD6XL-WX-0.1,2013-08-07 14:13:00,
2013-08-07 07:18:00,59.8,51.4,29.99,North,-999,-999.0,-999.0,73,0.00,,,0.00,AD6XL-WX-0.1,2013-08-07 14:18:00,
2013-08-07 07:23:00,59.8,51.6,29.99,North,-999,-999.0,-999.0,74,0.00,,,0.00,AD6XL-WX-0.1,2013-08-07 14:23:00,
2013-08-07 07:28:00,59.8,51.6,29.99,North,-999,-999.0,-999.0,74,0.00,,,0.00,AD6XL-WX-0.1,2013-08-07 14:28:00,
2013-08-07 07:33:00,59.8,51.8,29.98,North,-999,-999.0,-999.0,74,0.00,,,0.00,AD6XL-WX-0.1,2013-08-07 14:33:00,
2013-08-07 07:39:00,60.0,52.0,29.98,North,-999,-999.0,-999.0,74,0.00,,,0.00,AD6XL-WX-0.1,2013-08-07 14:39:00,
2013-08-07 07:44:00,60.1,52.0,29.98,North,-999,-999.0,-999.0,74,0.00,,,0.00,AD6XL-WX-0.1,2013-08-07 14:44:00,
2013-08-07 07:49:00,60.3,52.2,29.98,North,-999,-999.0,-999.0,74,0.00,,,0.00,AD6XL-WX-0.1,2013-08-07 14:49:00,
2013-08-07 07:54:00,60.5,52.4,29.98,North,-999,-999.0,-999.0,74,0.00,,,0.00,AD6XL-WX-0.1,2013-08-07 14:54:00,
2013-08-07 07:59:00,60.7,52.4,29.98,North,-999,-999.0,-999.0,74,0.00,,,0.00,AD6XL-WX-0.1,2013-08-07 14:59:00,
2013-08-07 08:04:00,60.9,52.4,29.98,North,-999,-999.0,-999.0,73,0.00,,,0.00,AD6XL-WX-0.1,2013-08-07 15:04:00,
2013-08-07 08:09:00,61.2,52.6,29.97,North,-999,-999.0,-999.0,73,0.00,,,0.00,AD6XL-WX-0.1,2013-08-07 15:09:00,
2013-08-07 08:14:00,61.4,52.8,29.97,North,-999,-999.0,-999.0,73,0.00,,,0.00,AD6XL-WX-0.1,2013-08-07 15:14:00,
2013-08-07 08:19:00,61.4,52.7,29.97,North,-999,-999.0,-999.0,73,0.00,,,0.00,AD6XL-WX-0.1,2013-08-07 15:19:00,
2013-08-07 08:24:00,61.4,52.6,29.97,North,-999,-999.0,-999.0,72,0.00,,,0.00,AD6XL-WX-0.1,2013-08-07 15:24:00,
2013-08-07 08:29:00,61.4,52.5,29.97,North,-999,-999.0,-999.0,72,0.00,,,0.00,AD6XL-WX-0.1,2013-08-07 15:29:00,
2013-08-07 08:35:00,61.5,52.6,29.97,North,-999,-999.0,-999.0,72,0.00,,,0.00,AD6XL-WX-0.1,2013-08-07 15:35:00,
2013-08-07 08:40:00,61.5,52.6,29.97,North,-999,-999.0,-999.0,72,0.00,,,0.00,AD6XL-WX-0.1,2013-08-07 15:40:00,
2013-08-07 08:45:00,61.5,52.7,29.97,North,-999,-999.0,-999.0,72,0.00,,,0.00,AD6XL-WX-0.1,2013-08-07 15:45:00,
2013-08-07 08:50:00,61.6,52.8,29.97,North,-999,-999.0,-999.0,72,0.00,,,0.00,AD6XL-WX-0.1,2013-08-07 15:50:00,
2013-08-07 08:55:00,61.9,52.8,29.97,North,-999,-999.0,-999.0,72,0.00,,,0.00,AD6XL-WX-0.1,2013-08-07 15:55:00,
2013-08-07 09:00:00,62.1,52.7,29.98,North,-999,-999.0,-999.0,71,0.00,,,0.00,AD6XL-WX-0.1,2013-08-07 16:00:00,
2013-08-07 09:05:00,62.4,52.6,29.98,North,-999,-999.0,-999.0,70,0.00,,,0.00,AD6XL-WX-0.1,2013-08-07 16:05:00,
2013-08-07 09:10:00,62.5,52.6,29.98,North,-999,-999.0,-999.0,69,0.00,,,0.00,AD6XL-WX-0.1,2013-08-07 16:10:00,
2013-08-07 09:15:00,62.6,52.5,29.98,North,-999,-999.0,-999.0,69,0.00,,,0.00,AD6XL-WX-0.1,2013-08-07 16:15:00,
2013-08-07 09:20:00,62.8,52.4,29.98,North,-999,-999.0,-999.0,68,0.00,,,0.00,AD6XL-WX-0.1,2013-08-07 16:20:00,
2013-08-07 09:26:00,62.9,52.3,29.97,North,-999,-999.0,-999.0,68,0.00,,,0.00,AD6XL-WX-0.1,2013-08-07 16:26:00,
2013-08-07 09:31:00,63.1,52.3,29.96,North,-999,-999.0,-999.0,67,0.00,,,0.00,AD6XL-WX-0.1,2013-08-07 16:31:00,
2013-08-07 09:36:00,63.3,52.5,29.96,North,-999,-999.0,-999.0,67,0.00,,,0.00,AD6XL-WX-0.1,2013-08-07 16:36:00,
2013-08-07 09:41:00,63.7,52.7,29.98,North,-999,-999.0,-999.0,67,0.00,,,0.00,AD6XL-WX-0.1,2013-08-07 16:41:00,
2013-08-07 09:46:00,64.1,52.9,29.98,North,-999,-999.0,-999.0,67,0.00,,,0.00,AD6XL-WX-0.1,2013-08-07 16:46:00,
2013-08-07 09:51:00,64.4,53.1,29.99,North,-999,-999.0,-999.0,66,0.00,,,0.00,AD6XL-WX-0.1,2013-08-07 16:51:00,
2013-08-07 09:56:00,64.7,52.9,29.99,North,-999,-999.0,-999.0,65,0.00,,,0.00,AD6XL-WX-0.1,2013-08-07 16:56:00,
2013-08-07 10:01:00,64.8,52.8,29.99,North,-999,-999.0,-999.0,65,0.00,,,0.00,AD6XL-WX-0.1,2013-08-07 17:01:00,
2013-08-07 10:06:00,64.8,52.7,30.00,North,-999,-999.0,-999.0,64,0.00,,,0.00,AD6XL-WX-0.1,2013-08-07 17:06:00,
2013-08-07 10:11:00,64.8,52.6,30.00,North,-999,-999.0,-999.0,64,0.00,,,0.00,AD6XL-WX-0.1,2013-08-07 17:11:00,
2013-08-07 10:16:00,64.8,52.8,30.01,North,-999,-999.0,-999.0,65,0.00,,,0.00,AD6XL-WX-0.1,2013-08-07 17:16:00,
2013-08-07 10:22:00,64.7,52.9,30.01,North,-999,-999.0,-999.0,65,0.00,,,0.00,AD6XL-WX-0.1,2013-08-07 17:22:00,
2013-08-07 10:27:00,64.6,52.9,30.01,North,-999,-999.0,-999.0,65,0.00,,,0.00,AD6XL-WX-0.1,2013-08-07 17:27:00,
2013-08-07 10:32:00,64.6,52.9,30.01,North,-999,-999.0,-999.0,65,0.00,,,0.00,AD6XL-WX-0.1,2013-08-07 17:32:00,
2013-08-07 10:37:00,64.6,52.8,30.01,North,-999,-999.0,-999.0,65,0.00,,,0.00,AD6XL-WX-0.1,2013-08-07 17:37:00,
2013-08-07 10:42:00,64.7,52.6,30.00,North,-999,-999.0,-999.0,64,0.00,,,0.00,AD6XL-WX-0.1,2013-08-07 17:42:00,
2013-08-07 10:47:00,64.8,52.4,30.00,North,-999,-999.0,-999.0,64,0.00,,,0.00,AD6XL-WX-0.1,2013-08-07 17:47:00,
2013-08-07 10:52:00,64.9,52.4,30.00,North,-999,-999.0,-999.0,63,0.00,,,0.00,AD6XL-WX-0.1,2013-08-07 17:52:00,
2013-08-07 10:57:00,65.1,52.6,30.00,North,-999,-999.0,-999.0,63,0.00,,,0.00,AD6XL-WX-0.1,2013-08-07 17:57:00,
2013-08-07 11:02:00,65.2,52.6,30.00,North,-999,-999.0,-999.0,63,0.00,,,0.00,AD6XL-WX-0.1,2013-08-07 18:02:00,
2013-08-07 11:07:00,65.4,52.6,29.99,North,-999,-999.0,-999.0,63,0.00,,,0.00,AD6XL-WX-0.1,2013-08-07 18:07:00,
2013-08-07 11:12:00,65.6,52.6,29.99,North,-999,-999.0,-999.0,62,0.00,,,0.00,AD6XL-WX-0.1,2013-08-07 18:12:00,
2013-08-07 11:18:00,66.0,52.8,29.99,North,-999,-999.0,-999.0,62,0.00,,,0.00,AD6XL-WX-0.1,2013-08-07 18:18:00,
2013-08-07 11:23:00,66.4,52.9,29.99,North,-999,-999.0,-999.0,61,0.00,,,0.00,AD6XL-WX-0.1,2013-08-07 18:23:00,
2013-08-07 11:28:00,66.8,52.8,29.99,North,-999,-999.0,-999.0,60,0.00,,,0.00,AD6XL-WX-0.1,2013-08-07 18:28:00,
2013-08-07 11:33:00,67.2,52.9,29.99,North,-999,-999.0,-999.0,60,0.00,,,0.00,AD6XL-WX-0.1,2013-08-07 18:33:00,
2013-08-07 11:38:00,67.6,53.1,29.99,North,-999,-999.0,-999.0,59,0.00,,,0.00,AD6XL-WX-0.1,2013-08-07 18:38:00,
2013-08-07 11:43:00,67.9,52.9,29.98,North,-999,-999.0,-999.0,58,0.00,,,0.00,AD6XL-WX-0.1,2013-08-07 18:43:00,
2013-08-07 11:48:00,68.0,52.8,29.97,North,-999,-999.0,-999.0,58,0.00,,,0.00,AD6XL-WX-0.1,2013-08-07 18:48:00,
2013-08-07 11:53:00,68.3,52.7,29.97,North,-999,-999.0,-999.0,57,0.00,,,0.00,AD6XL-WX-0.1,2013-08-07 18:53:00,
2013-08-07 11:58:00,68.8,53.0,29.97,North,-999,-999.0,-999.0,57,0.00,,,0.00,AD6XL-WX-0.1,2013-08-07 18:58:00,
2013-08-07 12:03:00,69.3,53.7,29.98,North,-999,-999.0,-999.0,57,0.00,,,0.00,AD6XL-WX-0.1,2013-08-07 19:03:00,
2013-08-07 12:08:00,69.9,54.1,29.98,North,-999,-999.0,-999.0,57,0.00,,,0.00,AD6XL-WX-0.1,2013-08-07 19:08:00,
2013-08-07 12:13:00,70.6,53.9,29.99,North,-999,-999.0,-999.0,55,0.00,,,0.00,AD6XL-WX-0.1,2013-08-07 19:13:00,
2013-08-07 12:19:00,71.3,54.0,29.99,North,-999,-999.0,-999.0,54,0.00,,,0.00,AD6XL-WX-0.1,2013-08-07 19:19:00,
2013-08-07 12:24:00,72.1,54.3,29.99,North,-999,-999.0,-999.0,53,0.00,,,0.00,AD6XL-WX-0.1,2013-08-07 19:24:00,
2013-08-07 12:29:00,72.7,54.4,29.99,North,-999,-999.0,-999.0,52,0.00,,,0.00,AD6XL-WX-0.1,2013-08-07 19:29:00,
2013-08-07 12:34:00,73.1,54.3,29.98,North,-999,-999.0,-999.0,51,0.00,,,0.00,AD6XL-WX-0.1,2013-08-07 19:34:00,
2013-08-07 12:39:00,73.4,53.7,29.98,North,-999,-999.0,-999.0,50,0.00,,,0.00,AD6XL-WX-0.1,2013-08-07 19:39:00,
2013-08-07 12:44:00,73.7,53.2,29.98,North,-999,-999.0,-999.0,48,0.00,,,0.00,AD6XL-WX-0.1,2013-08-07 19:44:00,
2013-08-07 12:49:00,73.9,53.1,29.98,North,-999,-999.0,-999.0,48,0.00,,,0.00,AD6XL-WX-0.1,2013-08-07 19:49:00,
2013-08-07 12:54:00,73.9,53.2,29.98,North,-999,-999.0,-999.0,48,0.00,,,0.00,AD6XL-WX-0.1,2013-08-07 19:54:00,
2013-08-07 12:59:00,74.1,53.8,29.99,North,-999,-999.0,-999.0,49,0.00,,,0.00,AD6XL-WX-0.1,2013-08-07 19:59:00,
2013-08-07 13:04:00,74.5,54.2,29.99,North,-999,-999.0,-999.0,49,0.00,,,0.00,AD6XL-WX-0.1,2013-08-07 20:04:00,
2013-08-07 13:10:00,74.9,54.3,29.99,North,-999,-999.0,-999.0,48,0.00,,,0.00,AD6XL-WX-0.1,2013-08-07 20:10:00,
2013-08-07 13:15:00,75.6,55.0,29.99,North,-999,-999.0,-999.0,48,0.00,,,0.00,AD6XL-WX-0.1,2013-08-07 20:15:00,
2013-08-07 13:20:00,76.4,55.2,29.99,North,-999,-999.0,-999.0,47,0.00,,,0.00,AD6XL-WX-0.1,2013-08-07 20:20:00,
2013-08-07 13:25:00,77.0,55.1,29.99,North,-999,-999.0,-999.0,46,0.00,,,0.00,AD6XL-WX-0.1,2013-08-07 20:25:00,
2013-08-07 13:30:00,77.3,54.9,29.99,North,-999,-999.0,-999.0,45,0.00,,,0.00,AD6XL-WX-0.1,2013-08-07 20:30:00,
2013-08-07 13:35:00,77.6,55.0,29.99,North,-999,-999.0,-999.0,45,0.00,,,0.00,AD6XL-WX-0.1,2013-08-07 20:35:00,
2013-08-07 13:40:00,78.4,55.0,29.99,North,-999,-999.0,-999.0,44,0.00,,,0.00,AD6XL-WX-0.1,2013-08-07 20:40:00,
2013-08-07 13:45:00,79.1,54.9,29.99,North,-999,-999.0,-999.0,43,0.00,,,0.00,AD6XL-WX-0.1,2013-08-07 20:45:00,
2013-08-07 13:50:00,79.6,54.6,29.99,North,-999,-999.0,-999.0,42,0.00,,,0.00,AD6XL-WX-0.1,2013-08-07 20:50:00,
2013-08-07 13:55:00,80.0,54.5,29.99,North,-999,-999.0,-999.0,41,0.00,,,0.00,AD6XL-WX-0.1,2013-08-07 20:55:00,
2013-08-07 14:00:00,80.3,54.2,29.99,North,-999,-999.0,-999.0,40,0.00,,,0.00,AD6XL-WX-0.1,2013-08-07 21:00:00,
2013-08-07 14:06:00,80.4,54.0,29.99,North,-999,-999.0,-999.0,40,0.00,,,0.00,AD6XL-WX-0.1,2013-08-07 21:06:00,
2013-08-07 14:11:00,80.4,53.7,29.99,North,-999,-999.0,-999.0,39,0.00,,,0.00,AD6XL-WX-0.1,2013-08-07 21:11:00,
2013-08-07 14:16:00,80.4,53.7,29.99,North,-999,-999.0,-999.0,39,0.00,,,0.00,AD6XL-WX-0.1,2013-08-07 21:16:00,
2013-08-07 14:21:00,80.8,53.9,29.99,North,-999,-999.0,-999.0,39,0.00,,,0.00,AD6XL-WX-0.1,2013-08-07 21:21:00,
2013-08-07 14:26:00,81.0,53.7,29.99,North,-999,-999.0,-999.0,39,0.00,,,0.00,AD6XL-WX-0.1,2013-08-07 21:26:00,
2013-08-07 14:31:00,80.9,53.4,29.99,North,-999,-999.0,-999.0,38,0.00,,,0.00,AD6XL-WX-0.1,2013-08-07 21:31:00,
2013-08-07 14:36:00,80.9,53.4,29.99,North,-999,-999.0,-999.0,38,0.00,,,0.00,AD6XL-WX-0.1,2013-08-07 21:36:00,
2013-08-07 14:41:00,81.1,53.4,29.99,North,-999,-999.0,-999.0,38,0.00,,,0.00,AD6XL-WX-0.1,2013-08-07 21:41:00,
2013-08-07 14:46:00,81.4,53.9,29.99,North,-999,-999.0,-999.0,38,0.00,,,0.00,AD6XL-WX-0.1,2013-08-07 21:46:00,
2013-08-07 14:51:00,81.7,53.9,29.99,North,-999,-999.0,-999.0,38,0.00,,,0.00,AD6XL-WX-0.1,2013-08-07 21:51:00,
2013-08-07 14:57:00,82.0,53.8,29.99,North,-999,-999.0,-999.0,38,0.00,,,0.00,AD6XL-WX-0.1,2013-08-07 21:57:00,
2013-08-07 15:02:00,82.3,53.9,29.99,North,-999,-999.0,-999.0,37,0.00,,,0.00,AD6XL-WX-0.1,2013-08-07 22:02:00,
2013-08-07 15:07:00,82.4,53.9,29.99,North,-999,-999.0,-999.0,37,0.00,,,0.00,AD6XL-WX-0.1,2013-08-07 22:07:00,
2013-08-07 15:12:00,82.1,53.5,29.99,North,-999,-999.0,-999.0,37,0.00,,,0.00,AD6XL-WX-0.1,2013-08-07 22:12:00,
2013-08-07 15:17:00,81.7,53.3,29.99,North,-999,-999.0,-999.0,37,0.00,,,0.00,AD6XL-WX-0.1,2013-08-07 22:17:00,
2013-08-07 15:22:00,81.7,53.7,29.99,North,-999,-999.0,-999.0,38,0.00,,,0.00,AD6XL-WX-0.1,2013-08-07 22:22:00,
2013-08-07 15:27:00,81.7,53.9,29.99,North,-999,-999.0,-999.0,38,0.00,,,0.00,AD6XL-WX-0.1,2013-08-07 22:27:00,
2013-08-07 15:32:00,81.7,53.9,29.99,North,-999,-999.0,-999.0,38,0.00,,,0.00,AD6XL-WX-0.1,2013-08-07 22:32:00,
2013-08-07 15:37:00,81.7,54.1,29.99,North,-999,-999.0,-999.0,38,0.00,,,0.00,AD6XL-WX-0.1,2013-08-07 22:37:00,
2013-08-07 15:42:00,81.8,54.4,29.99,North,-999,-999.0,-999.0,39,0.00,,,0.00,AD6XL-WX-0.1,2013-08-07 22:42:00,
2013-08-07 15:48:00,81.9,54.7,29.99,North,-999,-999.0,-999.0,39,0.00,,,0.00,AD6XL-WX-0.1,2013-08-07 22:48:00,
2013-08-07 15:53:00,81.9,54.8,29.99,North,-999,-999.0,-999.0,39,0.00,,,0.00,AD6XL-WX-0.1,2013-08-07 22:53:00,
2013-08-07 15:58:00,81.9,55.1,29.98,North,-999,-999.0,-999.0,39,0.00,,,0.00,AD6XL-WX-0.1,2013-08-07 22:58:00,
2013-08-07 16:03:00,82.1,55.4,29.98,North,-999,-999.0,-999.0,39,0.00,,,0.00,AD6XL-WX-0.1,2013-08-07 23:03:00,
2013-08-07 16:08:00,82.3,55.7,29.98,North,-999,-999.0,-999.0,40,0.00,,,0.00,AD6XL-WX-0.1,2013-08-07 23:08:00,
2013-08-07 16:13:00,82.5,55.8,29.98,North,-999,-999.0,-999.0,40,0.00,,,0.00,AD6XL-WX-0.1,2013-08-07 23:13:00,
2013-08-07 16:18:00,82.5,55.0,29.99,North,-999,-999.0,-999.0,39,0.00,,,0.00,AD6XL-WX-0.1,2013-08-07 23:18:00,
2013-08-07 16:23:00,82.2,55.0,29.98,North,-999,-999.0,-999.0,39,0.00,,,0.00,AD6XL-WX-0.1,2013-08-07 23:23:00,
2013-08-07 16:28:00,82.0,55.0,29.98,North,-999,-999.0,-999.0,39,0.00,,,0.00,AD6XL-WX-0.1,2013-08-07 23:28:00,
2013-08-07 16:33:00,82.0,54.7,29.98,North,-999,-999.0,-999.0,39,0.00,,,0.00,AD6XL-WX-0.1,2013-08-07 23:33:00,
2013-08-07 16:38:00,81.9,54.5,29.98,North,-999,-999.0,-999.0,38,0.00,,,0.00,AD6XL-WX-0.1,2013-08-07 23:38:00,
2013-08-07 16:44:00,81.8,54.5,29.98,North,-999,-999.0,-999.0,39,0.00,,,0.00,AD6XL-WX-0.1,2013-08-07 23:44:00,
2013-08-07 16:49:00,81.5,54.5,29.98,North,-999,-999.0,-999.0,39,0.00,,,0.00,AD6XL-WX-0.1,2013-08-07 23:49:00,
2013-08-07 16:54:00,81.1,54.3,29.98,North,-999,-999.0,-999.0,39,0.00,,,0.00,AD6XL-WX-0.1,2013-08-07 23:54:00,
2013-08-07 16:59:00,80.8,54.1,29.99,North,-999,-999.0,-999.0,39,0.00,,,0.00,AD6XL-WX-0.1,2013-08-07 23:59:00,
2013-08-07 17:04:00,80.5,54.2,29.98,North,-999,-999.0,-999.0,40,0.00,,,0.00,AD6XL-WX-0.1,2013-08-08 00:04:00,
2013-08-07 17:09:00,80.6,54.1,29.98,North,-999,-999.0,-999.0,40,0.00,,,0.00,AD6XL-WX-0.1,2013-08-08 00:09:00,
2013-08-07 17:14:00,80.5,53.5,29.98,North,-999,-999.0,-999.0,39,0.00,,,0.00,AD6XL-WX-0.1,2013-08-08 00:14:00,
2013-08-07 17:19:00,80.4,53.4,29.98,North,-999,-999.0,-999.0,39,0.00,,,0.00,AD6XL-WX-0.1,2013-08-08 00:19:00,
2013-08-07 17:24:00,80.4,53.3,29.97,North,-999,-999.0,-999.0,39,0.00,,,0.00,AD6XL-WX-0.1,2013-08-08 00:24:00,
2013-08-07 17:29:00,80.2,53.1,29.98,North,-999,-999.0,-999.0,39,0.00,,,0.00,AD6XL-WX-0.1,2013-08-08 00:29:00,
2013-08-07 17:35:00,80.0,53.0,29.98,North,-999,-999.0,-999.0,39,0.00,,,0.00,AD6XL-WX-0.1,2013-08-08 00:35:00,
2013-08-07 17:40:00,79.8,53.0,29.98,North,-999,-999.0,-999.0,39,0.00,,,0.00,AD6XL-WX-0.1,2013-08-08 00:40:00,
2013-08-07 17:45:00,79.6,53.0,29.98,North,-999,-999.0,-999.0,39,0.00,,,0.00,AD6XL-WX-0.1,2013-08-08 00:45:00,
2013-08-07 17:50:00,79.2,53.4,29.99,North,-999,-999.0,-999.0,40,0.00,,,0.00,AD6XL-WX-0.1,2013-08-08 00:50:00,
2013-08-07 17:55:00,78.6,53.6,29.99,North,-999,-999.0,-999.0,42,0.00,,,0.00,AD6XL-WX-0.1,2013-08-08 00:55:00,
2013-08-07 18:00:00,78.0,53.5,29.99,North,-999,-999.0,-999.0,42,0.00,,,0.00,AD6XL-WX-0.1,2013-08-08 01:00:00,
2013-08-07 18:05:00,77.4,53.3,29.98,North,-999,-999.0,-999.0,43,0.00,,,0.00,AD6XL-WX-0.1,2013-08-08 01:05:00,
2013-08-07 18:10:00,77.0,53.4,29.98,North,-999,-999.0,-999.0,44,0.00,,,0.00,AD6XL-WX-0.1,2013-08-08 01:10:00,
2013-08-07 18:15:00,76.7,53.6,29.99,North,-999,-999.0,-999.0,44,0.00,,,0.00,AD6XL-WX-0.1,2013-08-08 01:15:00,
2013-08-07 18:20:00,76.2,53.4,29.99,North,-999,-999.0,-999.0,45,0.00,,,0.00,AD6XL-WX-0.1,2013-08-08 01:20:00,
2013-08-07 18:26:00,75.6,53.4,29.99,North,-999,-999.0,-999.0,46,0.00,,,0.00,AD6XL-WX-0.1,2013-08-08 01:26:00,
2013-08-07 18:31:00,75.1,53.5,29.99,North,-999,-999.0,-999.0,46,0.00,,,0.00,AD6XL-WX-0.1,2013-08-08 01:31:00,
2013-08-07 18:36:00,74.7,53.5,29.98,North,-999,-999.0,-999.0,47,0.00,,,0.00,AD6XL-WX-0.1,2013-08-08 01:36:00,
2013-08-07 18:41:00,74.4,53.6,29.98,North,-999,-999.0,-999.0,48,0.00,,,0.00,AD6XL-WX-0.1,2013-08-08 01:41:00,
2013-08-07 18:46:00,74.1,53.7,29.99,North,-999,-999.0,-999.0,49,0.00,,,0.00,AD6XL-WX-0.1,2013-08-08 01:46:00,
2013-08-07 18:51:00,73.7,53.7,29.99,North,-999,-999.0,-999.0,49,0.00,,,0.00,AD6XL-WX-0.1,2013-08-08 01:51:00,
2013-08-07 18:56:00,73.5,53.7,29.99,North,-999,-999.0,-999.0,50,0.00,,,0.00,AD6XL-WX-0.1,2013-08-08 01:56:00,
2013-08-07 19:01:00,73.2,53.6,29.99,North,-999,-999.0,-999.0,50,0.00,,,0.00,AD6XL-WX-0.1,2013-08-08 02:01:00,
2013-08-07 19:06:00,72.9,53.4,29.99,North,-999,-999.0,-999.0,50,0.00,,,0.00,AD6XL-WX-0.1,2013-08-08 02:06:00,
2013-08-07 19:11:00,72.6,53.4,29.99,North,-999,-999.0,-999.0,50,0.00,,,0.00,AD6XL-WX-0.1,2013-08-08 02:11:00,
2013-08-07 19:17:00,72.3,53.3,29.99,North,-999,-999.0,-999.0,51,0.00,,,0.00,AD6XL-WX-0.1,2013-08-08 02:17:00,
2013-08-07 19:22:00,71.9,53.3,29.99,North,-999,-999.0,-999.0,52,0.00,,,0.00,AD6XL-WX-0.1,2013-08-08 02:22:00,
2013-08-07 19:27:00,71.5,53.3,29.99,North,-999,-999.0,-999.0,52,0.00,,,0.00,AD6XL-WX-0.1,2013-08-08 02:27:00,
2013-08-07 19:32:00,71.1,53.2,29.99,North,-999,-999.0,-999.0,53,0.00,,,0.00,AD6XL-WX-0.1,2013-08-08 02:32:00,
2013-08-07 19:37:00,70.7,53.2,29.99,North,-999,-999.0,-999.0,53,0.00,,,0.00,AD6XL-WX-0.1,2013-08-08 02:37:00,
2013-08-07 19:42:00,70.5,53.1,29.99,North,-999,-999.0,-999.0,54,0.00,,,0.00,AD6XL-WX-0.1,2013-08-08 02:42:00,
2013-08-07 19:47:00,70.2,52.9,29.99,North,-999,-999.0,-999.0,54,0.00,,,0.00,AD6XL-WX-0.1,2013-08-08 02:47:00,
2013-08-07 19:52:00,70.0,52.9,29.99,North,-999,-999.0,-999.0,54,0.00,,,0.00,AD6XL-WX-0.1,2013-08-08 02:52:00,
2013-08-07 19:57:00,69.6,52.9,29.99,North,-999,-999.0,-999.0,55,0.00,,,0.00,AD6XL-WX-0.1,2013-08-08 02:57:00,
2013-08-07 20:02:00,69.2,52.7,29.99,North,-999,-999.0,-999.0,55,0.00,,,0.00,AD6XL-WX-0.1,2013-08-08 03:02:00,
2013-08-07 20:08:00,68.9,52.7,29.99,North,-999,-999.0,-999.0,56,0.00,,,0.00,AD6XL-WX-0.1,2013-08-08 03:08:00,
2013-08-07 20:13:00,68.5,52.6,29.99,North,-999,-999.0,-999.0,56,0.00,,,0.00,AD6XL-WX-0.1,2013-08-08 03:13:00,
2013-08-07 20:18:00,68.2,52.5,29.99,North,-999,-999.0,-999.0,57,0.00,,,0.00,AD6XL-WX-0.1,2013-08-08 03:18:00,
2013-08-07 20:23:00,67.9,52.4,29.99,North,-999,-999.0,-999.0,57,0.00,,,0.00,AD6XL-WX-0.1,2013-08-08 03:23:00,
2013-08-07 20:28:00,67.7,52.4,29.99,North,-999,-999.0,-999.0,58,0.00,,,0.00,AD6XL-WX-0.1,2013-08-08 03:28:00,
2013-08-07 20:33:00,67.4,52.5,29.99,North,-999,-999.0,-999.0,58,0.00,,,0.00,AD6XL-WX-0.1,2013-08-08 03:33:00,
2013-08-07 20:38:00,67.2,52.6,30.00,North,-999,-999.0,-999.0,59,0.00,,,0.00,AD6XL-WX-0.1,2013-08-08 03:38:00,
2013-08-07 20:43:00,67.0,52.6,30.00,North,-999,-999.0,-999.0,59,0.00,,,0.00,AD6XL-WX-0.1,2013-08-08 03:43:00,
2013-08-07 20:48:00,66.7,52.6,30.00,North,-999,-999.0,-999.0,60,0.00,,,0.00,AD6XL-WX-0.1,2013-08-08 03:48:00,
2013-08-07 20:54:00,66.5,52.6,30.00,North,-999,-999.0,-999.0,60,0.00,,,0.00,AD6XL-WX-0.1,2013-08-08 03:54:00,
2013-08-07 20:59:00,66.2,52.5,30.00,North,-999,-999.0,-999.0,61,0.00,,,0.00,AD6XL-WX-0.1,2013-08-08 03:59:00,
2013-08-07 21:01:00,66.1,52.5,30.00,North,-999,-999.0,-999.0,61,0.00,,,0.00,AD6XL-WX-0.1,2013-08-08 04:01:00,
2013-08-07 21:02:00,66.1,52.5,30.00,North,-999,-999.0,-999.0,61,0.00,,,0.00,AD6XL-WX-0.1,2013-08-08 04:02:00,
2013-08-07 21:07:00,65.8,52.5,30.00,North,-999,-999.0,-999.0,62,0.00,,,0.00,AD6XL-WX-0.1,2013-08-08 04:07:00,
2013-08-07 21:12:00,65.6,52.5,30.00,North,-999,-999.0,-999.0,62,0.00,,,0.00,AD6XL-WX-0.1,2013-08-08 04:12:00,
2013-08-07 21:17:00,65.4,52.4,30.00,North,-999,-999.0,-999.0,62,0.00,,,0.00,AD6XL-WX-0.1,2013-08-08 04:17:00,
2013-08-07 21:22:00,65.2,52.3,30.01,North,-999,-999.0,-999.0,63,0.00,,,0.00,AD6XL-WX-0.1,2013-08-08 04:22:00,
2013-08-07 21:27:00,65.1,52.4,30.01,North,-999,-999.0,-999.0,63,0.00,,,0.00,AD6XL-WX-0.1,2013-08-08 04:27:00,
2013-08-07 21:32:00,64.9,52.4,30.01,North,-999,-999.0,-999.0,63,0.00,,,0.00,AD6XL-WX-0.1,2013-08-08 04:32:00,
2013-08-07 21:37:00,64.8,52.2,30.01,North,-999,-999.0,-999.0,63,0.00,,,0.00,AD6XL-WX-0.1,2013-08-08 04:37:00,
2013-08-07 21:42:00,64.6,52.1,30.01,North,-999,-999.0,-999.0,63,0.00,,,0.00,AD6XL-WX-0.1,2013-08-08 04:42:00,
2013-08-07 21:47:00,64.6,52.1,30.01,North,-999,-999.0,-999.0,64,0.00,,,0.00,AD6XL-WX-0.1,2013-08-08 04:47:00,
2013-08-07 21:53:00,64.5,52.2,30.01,North,-999,-999.0,-999.0,64,0.00,,,0.00,AD6XL-WX-0.1,2013-08-08 04:53:00,
2013-08-07 21:58:00,64.3,52.2,30.01,North,-999,-999.0,-999.0,64,0.00,,,0.00,AD6XL-WX-0.1,2013-08-08 04:58:00,
2013-08-07 22:03:00,64.2,52.1,30.01,North,-999,-999.0,-999.0,64,0.00,,,0.00,AD6XL-WX-0.1,2013-08-08 05:03:00,
2013-08-07 22:08:00,64.1,52.0,30.01,North,-999,-999.0,-999.0,64,0.00,,,0.00,AD6XL-WX-0.1,2013-08-08 05:08:00,
2013-08-07 22:13:00,63.9,51.9,30.01,North,-999,-999.0,-999.0,64,0.00,,,0.00,AD6XL-WX-0.1,2013-08-08 05:13:00,
2013-08-07 22:18:00,63.7,51.8,30.01,North,-999,-999.0,-999.0,65,0.00,,,0.00,AD6XL-WX-0.1,2013-08-08 05:18:00,
2013-08-07 22:23:00,63.5,51.7,30.01,North,-999,-999.0,-999.0,65,0.00,,,0.00,AD6XL-WX-0.1,2013-08-08 05:23:00,
2013-08-07 22:28:00,63.2,51.6,30.01,North,-999,-999.0,-999.0,65,0.00,,,0.00,AD6XL-WX-0.1,2013-08-08 05:28:00,
2013-08-07 22:33:00,62.9,51.6,30.01,North,-999,-999.0,-999.0,66,0.00,,,0.00,AD6XL-WX-0.1,2013-08-08 05:33:00,
2013-08-07 22:38:00,62.5,51.6,30.01,North,-999,-999.0,-999.0,67,0.00,,,0.00,AD6XL-WX-0.1,2013-08-08 05:38:00,
2013-08-07 22:43:00,62.2,51.6,30.01,North,-999,-999.0,-999.0,68,0.00,,,0.00,AD6XL-WX-0.1,2013-08-08 05:43:00,
2013-08-07 22:49:00,61.9,51.5,30.01,North,-999,-999.0,-999.0,68,0.00,,,0.00,AD6XL-WX-0.1,2013-08-08 05:49:00,
2013-08-07 22:54:00,61.7,51.5,30.01,North,-999,-999.0,-999.0,69,0.00,,,0.00,AD6XL-WX-0.1,2013-08-08 05:54:00,
2013-08-07 22:59:00,61.3,51.4,30.01,North,-999,-999.0,-999.0,69,0.00,,,0.00,AD6XL-WX-0.1,2013-08-08 05:59:00,
2013-08-07 23:04:00,60.9,51.4,30.01,North,-999,-999.0,-999.0,70,0.00,,,0.00,AD6XL-WX-0.1,2013-08-08 06:04:00,
2013-08-07 23:09:00,60.4,51.3,30.01,North,-999,-999.0,-999.0,72,0.00,,,0.00,AD6XL-WX-0.1,2013-08-08 06:09:00,
2013-08-07 23:14:00,60.0,51.3,30.01,North,-999,-999.0,-999.0,72,0.00,,,0.00,AD6XL-WX-0.1,2013-08-08 06:14:00,
2013-08-07 23:19:00,59.7,51.2,30.01,North,-999,-999.0,-999.0,73,0.00,,,0.00,AD6XL-WX-0.1,2013-08-08 06:19:00,
2013-08-07 23:24:00,59.6,51.3,30.02,North,-999,-999.0,-999.0,73,0.00,,,0.00,AD6XL-WX-0.1,2013-08-08 06:24:00,
2013-08-07 23:29:00,59.4,51.3,30.02,North,-999,-999.0,-999.0,74,0.00,,,0.00,AD6XL-WX-0.1,2013-08-08 06:29:00,
2013-08-07 23:34:00,59.2,51.3,30.02,North,-999,-999.0,-999.0,75,0.00,,,0.00,AD6XL-WX-0.1,2013-08-08 06:34:00,
2013-08-07 23:40:00,59.2,51.3,30.02,North,-999,-999.0,-999.0,75,0.00,,,0.00,AD6XL-WX-0.1,2013-08-08 06:40:00,
2013-08-07 23:45:00,58.9,51.2,30.02,North,-999,-999.0,-999.0,75,0.00,,,0.00,AD6XL-WX-0.1,2013-08-08 06:45:00,
2013-08-07 23:50:00,58.6,51.0,30.02,North,-999,-999.0,-999.0,75,0.00,,,0.00,AD6XL-WX-0.1,2013-08-08 06:50:00,
2013-08-07 23:55:00,58.3,50.9,30.02,North,-999,-999.0,-999.0,76,0.00,,,0.00,AD6XL-WX-0.1,2013-08-08 06:55:00,